[[{"header":{"parameterUnit":"m.s-1","parameterCategory":1,"la1":30.2991,"la2":30.254,"lo1":-89.0895,"lo2":-89.0444,"dy":0.0017,"dx":0.0017,"nx":28,"ny":28,"refTime":"2023-09-01T21:00:00:Z","depth":0,"parameterNumber":2,"parameterNumberName":"U-component_of_WINDS"},"data":[0,0,0,0,0,0,0,0,0,0,0,0,0,0,0,0,0,0,0,0,0,0,0,0,0,0,0,0,0,0,0,0,0,0,0,0,0,0,0,0,0,0,0,0,0,0,0,0,0,0,0,0,0,0,0,0,0,0,-1.8926,-1.8926,0,-1.8893,-1.8893,-1.8892,-1.8856,-1.8855,-1.8855,-1.8854,-1.8821,-1.8821,-1.882,0,0,0,0,0,0,0,0,0,0,0,0,0,-1.896,-1.8959,-1.8926,-1.8926,-1.8925,-1.8893,-1.8893,-1.8892,-1.8856,-1.8855,-1.8855,-1.8854,-1.8821,-1.8821,-1.882,0,0,0,0,0,0,0,0,0,0,0,0,0,-1.8938,-1.8959,-1.8926,-1.8903,-1.8901,-1.8893,-1.8893,-1.8892,-1.8856,-1.8855,-1.8854,-1.8854,-1.8821,-1.8821,-1.882,-1.8833,0,0,-1.8819,-1.8818,0,0,0,0,0,0,0,0,-1.8939,-1.8937,-1.8907,-1.8905,-1.8902,-1.8878,-1.8892,-1.8872,-1.8856,-1.8873,-1.8854,-1.8853,-1.8841,-1.8838,-1.8834,-1.8831,-1.883,-1.8819,-1.8818,-1.8818,-1.8818,0,0,0,0,0,0,0,-1.8941,-1.8938,-1.8913,-1.8907,-1.8904,-1.8895,-1.8891,-1.8888,-1.8862,-1.8872,-1.8869,-1.8865,-1.8839,-1.8835,-1.8833,-1.8829,-1.8819,-1.8818,-1.8818,-1.8817,-1.8836,-1.8836,0,0,0,0,0,0,-1.8945,-1.8939,-1.8914,-1.8912,-1.8919,-1.8895,-1.8891,-1.8886,-1.8862,-1.8857,-1.8866,-1.8864,-1.8836,-1.8834,-1.8832,-1.8844,-1.8818,-1.8817,-1.8817,-1.8835,-1.8836,-1.8837,0,0,0,0,0,0,-1.8946,-1.8944,-1.8915,-1.8925,-1.8921,-1.8896,-1.8891,-1.8886,-1.8881,-1.8858,-1.8853,-1.8866,-1.8835,-1.8832,-1.8833,-1.8843,-1.8817,-1.8817,-1.8834,-1.8835,-1.8836,-1.887,0,0,0,0,0,0,-1.8947,-1.8944,-1.8948,-1.8925,-1.892,-1.8917,-1.8891,-1.8886,-1.888,-1.8877,-1.8856,-1.8852,-1.8834,-1.8834,-1.8832,-1.8841,-1.8816,-1.8833,-1.8834,-1.8836,-1.8868,-1.8872,-1.8876,0,0,0,0,0,-1.8949,-1.8959,-1.8948,-1.8945,-1.8925,-1.8917,-1.8914,-1.8893,-1.8881,-1.8885,-1.887,-1.8853,-1.8842,-1.8834,-1.8832,-1.8841,-1.8832,-1.8834,-1.8836,-1.8866,-1.8871,-1.8876,0,0,0,0,0,0,-1.8983,-1.8955,-1.8943,-1.8946,-1.8934,-1.8911,-1.8915,-1.89,-1.8891,-1.8888,-1.8863,-1.8859,-1.8862,-1.8852,-1.8844,-1.8852,-1.8835,-1.8836,-1.8859,-1.8863,-1.8867,-1.8869,-1.8816,0,0,0,0,0,-1.8991,-1.8987,-1.8963,-1.8968,-1.8963,-1.894,-1.8936,-1.8921,-1.8908,-1.8903,-1.8888,-1.8876,-1.887,-1.8866,-1.886,-1.8867,-1.8862,-1.8872,-1.8877,-1.888,-1.8881,-1.8885,-1.8889,-1.8843,-1.8843,-1.8843,0,0,-1.9008,-1.8992,-1.8991,-1.8975,-1.8964,-1.896,-1.8936,-1.8934,-1.8931,-1.8903,-1.8901,-1.889,-1.8876,-1.888,-1.8881,-1.8871,-1.8893,-1.8882,-1.8885,-1.8884,-1.8887,-1.8891,-1.8895,-1.8844,-1.8844,-1.8844,0,0,-1.9035,-1.9023,-1.9026,-1.9016,-1.8999,-1.8984,-1.8985,-1.8965,-1.8956,-1.8955,-1.8934,-1.8931,-1.8921,-1.8911,-1.8905,-1.8931,-1.8915,-1.893,-1.8951,-1.8954,-1.8958,-1.8961,-1.897,-1.8973,-1.8932,-1.8932,-1.8932,0,-1.9057,-1.9051,-1.9029,-1.9028,-1.9022,-1.8997,-1.9,-1.8991,-1.8973,-1.897,-1.896,-1.8947,-1.8936,-1.8937,-1.8944,-1.894,-1.894,-1.8931,-1.8959,-1.8962,-1.8964,-1.8973,-1.8976,-1.8934,-1.8933,-1.8933,-1.8933,0,-1.9079,-1.9075,-1.9079,-1.9063,-1.9058,-1.9059,-1.9038,-1.9035,-1.9022,-1.9008,-1.9008,-1.8993,-1.8983,-1.8983,-1.8969,-1.8983,-1.8977,-1.8964,-1.8945,-1.8971,-1.8978,-1.8981,-1.8936,-1.8936,-1.8935,-1.8935,0,0,-1.9125,-1.9098,-1.91,-1.9092,-1.9073,-1.907,-1.9071,-1.9061,-1.9059,-1.9049,-1.9048,-1.9041,-1.9029,-1.9022,-1.9008,-1.9011,-1.9033,-1.8997,-1.8996,-1.9004,-1.9046,-1.9056,-1.9059,-1.9023,-1.9023,-1.9023,-1.9047,0,-1.9149,-1.9147,-1.9128,-1.9132,-1.9128,-1.9105,-1.9106,-1.9095,-1.9083,-1.9079,-1.9066,-1.9061,-1.9045,-1.9041,-1.9043,-1.9029,-1.9041,-1.9028,-1.9022,-1.9022,-1.9025,-1.9063,-1.9073,-1.9096,-1.905,-1.905,-1.9051,0,-1.9175,-1.9166,-1.9169,-1.9151,-1.9149,-1.915,-1.9139,-1.9136,-1.9123,-1.9114,-1.9108,-1.9092,-1.9091,-1.9076,-1.9075,-1.9067,-1.9064,-1.9057,-1.9057,-1.9055,-1.9037,-1.9061,-1.9103,-1.9106,-1.9055,-1.9055,-1.9054,0,-1.9207,-1.9197,-1.9197,-1.9192,-1.917,-1.9171,-1.9163,-1.915,-1.9145,-1.9137,-1.9134,-1.9126,-1.9121,-1.9116,-1.9099,-1.9089,-1.91,-1.9083,-1.9093,-1.9093,-1.9095,-1.9095,-1.9136,-1.9095,-1.9095,-1.9095,-1.9095,0,-1.9234,-1.9237,-1.9211,-1.9211,-1.9214,-1.9194,-1.9197,-1.9187,-1.9176,-1.9174,-1.9154,-1.9153,-1.9131,-1.9128,-1.9115,-1.9116,-1.9115,-1.9108,-1.9104,-1.9108,-1.9109,-1.9105,-1.9102,-1.9096,-1.9096,-1.9096,-1.9096,0,-1.927,-1.9253,-1.9252,-1.9233,-1.9228,-1.9231,-1.9214,-1.9214,-1.9202,-1.92,-1.9199,-1.9179,-1.9174,-1.9157,-1.9148,-1.914,-1.9145,-1.9139,-1.9149,-1.9146,-1.9157,-1.9156,-1.9195,-1.9199,-1.9158,-1.9158,-1.9159,0,-1.9288,-1.9289,-1.927,-1.9268,-1.926,-1.9256,-1.9251,-1.9232,-1.9228,-1.9215,-1.9217,-1.9211,-1.9204,-1.9198,-1.9183,-1.9177,-1.9169,-1.9184,-1.9168,-1.9173,-1.9168,-1.9168,-1.9168,-1.9186,-1.9187,-1.9187,-1.9188,0,-1.9321,-1.9312,-1.9306,-1.9298,-1.9293,-1.9285,-1.9277,-1.9276,-1.9255,-1.9252,-1.9246,-1.9242,-1.9233,-1.9227,-1.9218,-1.921,-1.9195,-1.9193,-1.9195,-1.9199,-1.9205,-1.9201,-1.9157,-1.9192,-1.9192,-1.9191,-1.9191,-1.9191,-1.9347,-1.9347,-1.9334,-1.9328,-1.932,-1.9313,-1.9312,-1.93,-1.9295,-1.9286,-1.9275,-1.9272,-1.9261,-1.9247,-1.924,-1.9238,-1.923,-1.9232,-1.9233,-1.9233,-1.9235,-1.9207,-1.9236,-1.9236,-1.9236,-1.9236,-1.9236,0,-1.9378,-1.9369,-1.9364,-1.9352,-1.9348,-1.9336,-1.9326,-1.9323,-1.932,-1.9311,-1.9305,-1.93,-1.9294,-1.928,-1.9274,-1.9274,-1.9267,-1.9273,-1.9272,-1.927,-1.9243,-1.9242,-1.9279,-1.9279,-1.9279,-1.9278,-1.9278,-1.9278,-1.9393,-1.9393,-1.9384,-1.938,-1.9371,-1.9367,-1.9362,-1.9356,-1.9348,-1.9343,-1.9338,-1.9329,-1.9318,-1.9311,-1.9306,-1.9302,-1.93,-1.9308,-1.9301,-1.9276,-1.9272,-1.9268,-1.9267,-1.9308,-1.9308,-1.9328,-1.9328,-1.9329]},{"header":{"parameterUnit":"m.s-1","parameterCategory":1,"la1":30.2991,"la2":30.254,"lo1":-89.0895,"lo2":-89.0444,"dy":0.0017,"dx":0.0017,"nx":28,"ny":28,"refTime":"2023-09-01T21:00:00:Z","depth":0,"parameterNumber":3,"parameterNumberName":"V-component_of_WINDS"},"data":[0,0,0,0,0,0,0,0,0,0,0,0,0,0,0,0,0,0,0,0,0,0,0,0,0,0,0,0,0,0,0,0,0,0,0,0,0,0,0,0,0,0,0,0,0,0,0,0,0,0,0,0,0,0,0,0,0,0,2.9306,2.9306,0,2.9255,2.9254,2.9254,2.9266,2.9267,2.9268,2.9269,2.921,2.9207,2.9205,0,0,0,0,0,0,0,0,0,0,0,0,0,2.9409,2.9408,2.9306,2.9306,2.9305,2.9255,2.9254,2.9254,2.9266,2.9267,2.9268,2.9269,2.9211,2.9208,2.9205,0,0,0,0,0,0,0,0,0,0,0,0,0,2.9362,2.9407,2.9306,2.9305,2.9305,2.9255,2.9254,2.9253,2.9266,2.9267,2.9269,2.927,2.9212,2.9208,2.9204,2.9151,0,0,2.9193,2.9191,0,0,0,0,0,0,0,0,2.9365,2.9358,2.9306,2.9305,2.9304,2.9269,2.9269,2.9219,2.9265,2.928,2.9269,2.9271,2.9228,2.9223,2.921,2.9148,2.9146,2.9192,2.919,2.9189,2.9187,0,0,0,0,0,0,0,2.9368,2.936,2.9286,2.9305,2.9304,2.9306,2.93,2.926,2.9246,2.9279,2.928,2.9274,2.9228,2.9213,2.9208,2.9145,2.9193,2.9189,2.9187,2.9185,2.9037,2.9035,0,0,0,0,0,0,2.9373,2.9363,2.9287,2.9284,2.9339,2.9303,2.9297,2.9278,2.9246,2.9243,2.9273,2.9275,2.9219,2.9213,2.9206,2.9141,2.9189,2.9185,2.9183,2.9038,2.9036,2.9035,0,0,0,0,0,0,2.9375,2.9366,2.9289,2.9324,2.9314,2.9299,2.9278,2.9277,2.9262,2.9242,2.9239,2.9261,2.922,2.9212,2.9165,2.914,2.9183,2.918,2.904,2.9038,2.9036,2.9011,0,0,0,0,0,0,2.9378,2.9367,2.9347,2.9323,2.9312,2.9251,2.9277,2.9275,2.9257,2.9259,2.923,2.9226,2.922,2.9171,2.9161,2.9135,2.9177,2.9043,2.9039,2.9036,2.9014,2.9008,2.9003,0,0,0,0,0,2.9381,2.9341,2.9346,2.9337,2.9288,2.9249,2.9243,2.9238,2.9255,2.9234,2.9221,2.9227,2.9144,2.9166,2.9155,2.9128,2.9044,2.904,2.9037,2.9017,2.901,2.9003,0,0,0,0,0,0,2.9359,2.9338,2.9343,2.9294,2.9274,2.9251,2.9225,2.9231,2.9203,2.9206,2.92,2.9193,2.9146,2.9132,2.9157,2.9074,2.9096,2.909,2.9085,2.9078,2.9072,2.9076,2.9174,0,0,0,0,0,2.9349,2.9321,2.9303,2.9261,2.9251,2.924,2.9223,2.9222,2.9199,2.919,2.9173,2.915,2.9118,2.9098,2.9067,2.9013,2.9006,2.8989,2.8984,2.8979,2.8973,2.8943,2.8935,2.9022,2.9022,2.9022,0,0,2.9327,2.9312,2.9294,2.9257,2.9241,2.921,2.9233,2.9199,2.9176,2.9184,2.914,2.9127,2.91,2.905,2.9026,2.9037,2.8948,2.8974,2.8971,2.8967,2.8938,2.893,2.8923,2.902,2.902,2.902,0,0,2.9271,2.9257,2.9221,2.9205,2.9182,2.9175,2.9167,2.9144,2.9136,2.9092,2.9098,2.907,2.9016,2.8997,2.898,2.8918,2.8923,2.8909,2.8879,2.885,2.8843,2.8837,2.8814,2.8806,2.8903,2.8903,2.8903,0,2.9245,2.9202,2.9201,2.9168,2.9151,2.916,2.9123,2.9107,2.9074,2.9061,2.9074,2.9007,2.899,2.8935,2.892,2.8906,2.8895,2.8911,2.8844,2.8838,2.8832,2.881,2.8802,2.8902,2.8902,2.8902,2.8902,0,2.9171,2.9141,2.9114,2.9085,2.9065,2.903,2.9023,2.9002,2.9003,2.8995,2.895,2.893,2.8896,2.8883,2.8883,2.8828,2.8835,2.8846,2.8868,2.8822,2.8802,2.8793,2.8899,2.89,2.89,2.8901,0,0,2.9097,2.907,2.906,2.9047,2.9023,2.8998,2.8963,2.8933,2.8915,2.8892,2.8862,2.8817,2.8828,2.8809,2.8806,2.8781,2.8733,2.8795,2.8794,2.8783,2.8671,2.8662,2.8652,2.8737,2.8735,2.8734,2.8673,0,2.9038,2.8979,2.8978,2.8923,2.8894,2.8903,2.8873,2.8853,2.8845,2.8818,2.8808,2.8776,2.8793,2.8782,2.8757,2.8744,2.871,2.8749,2.8706,2.8705,2.8712,2.8642,2.8632,2.8575,2.8665,2.8663,2.8662,0,2.8961,2.8939,2.8881,2.8862,2.885,2.8822,2.8794,2.8769,2.8748,2.8743,2.8723,2.8725,2.8688,2.8712,2.866,2.8686,2.8669,2.866,2.8658,2.8652,2.868,2.8633,2.8557,2.8548,2.865,2.8651,2.8652,0,2.8912,2.8867,2.8827,2.8816,2.8792,2.8773,2.8762,2.8742,2.8724,2.8699,2.8687,2.8658,2.8641,2.8618,2.8611,2.863,2.8559,2.8583,2.8552,2.8552,2.8535,2.8536,2.8454,2.8527,2.8527,2.8527,2.8527,0,2.8846,2.8809,2.8805,2.878,2.874,2.8739,2.8699,2.8689,2.8672,2.8644,2.865,2.8623,2.8617,2.8588,2.8583,2.854,2.8532,2.8527,2.8525,2.8525,2.8526,2.8513,2.8516,2.8525,2.8525,2.8525,2.8526,0,2.8783,2.8779,2.8736,2.8718,2.8713,2.8684,2.8668,2.8643,2.8637,2.8601,2.8593,2.8581,2.8548,2.854,2.85,2.8497,2.8446,2.8449,2.8454,2.8453,2.8423,2.8426,2.8328,2.8315,2.8398,2.8397,2.8396,0,2.874,2.8713,2.8694,2.8677,2.8666,2.8638,2.862,2.8619,2.86,2.8574,2.8552,2.8521,2.8495,2.8442,2.8428,2.8398,2.84,2.8368,2.8395,2.8396,2.8398,2.8399,2.8396,2.8362,2.8361,2.836,2.836,0,2.8664,2.8664,2.864,2.8615,2.8594,2.8574,2.8554,2.8539,2.8535,2.8513,2.8481,2.8462,2.8422,2.839,2.836,2.8347,2.8352,2.8352,2.8343,2.8342,2.8345,2.8342,2.8438,2.8353,2.8354,2.8354,2.8355,2.8355,2.861,2.8586,2.8569,2.8542,2.8528,2.851,2.8486,2.8477,2.8451,2.8421,2.8421,2.8386,2.8365,2.8325,2.8311,2.8282,2.8291,2.8279,2.8275,2.8272,2.8269,2.8352,2.8276,2.8276,2.8277,2.8277,2.8277,0,2.8533,2.8524,2.8499,2.8472,2.845,2.8461,2.844,2.842,2.839,2.8371,2.8347,2.831,2.8279,2.8265,2.8234,2.8214,2.8215,2.8206,2.8206,2.8203,2.8262,2.8273,2.8205,2.8205,2.8205,2.8205,2.8205,2.8205,2.8491,2.8452,2.845,2.8403,2.8393,2.8361,2.8348,2.8331,2.8316,2.8275,2.8251,2.8243,2.8225,2.8194,2.8166,2.8162,2.815,2.8139,2.8136,2.8192,2.8199,2.8206,2.8215,2.8137,2.8137,2.8079,2.8079,2.8078]}]]